This is the latest recevied weather packets stored in our database for station/object KB1RMA-13. If no packets are shown the sender has not sent any weather packets the latest 10 day(s).
| Time | Temp. | Humidity | Pressure | Rain* | Wind** | Luminosity | Snow |
|---|---|---|---|---|---|---|---|
| 1777996425 | 24.44° C | 47% | 1008.6 hPa | 0 mm | - | 157 W/m² | - |
| 1777996122 | 23.89° C | 47% | 1008.4 hPa | 0 mm | - | 672 W/m² | - |
| 1777995818 | 23.89° C | 48% | 1008.6 hPa | 0 mm | - | 184 W/m² | - |
| 1777995514 | 23.89° C | 51% | 1008.8 hPa | 0 mm | - | 141 W/m² | - |
| 1777995212 | 23.33° C | 49% | 1008.5 hPa | 0 mm | - | 835 W/m² | - |
| 1777994909 | 23.89° C | 49% | 1008.8 hPa | 0 mm | - | 140 W/m² | - |
| 1777994606 | 23.33° C | 50% | 1008.9 hPa | 0 mm | - | 138 W/m² | - |
| 1777994306 | 23.33° C | 50% | 1008.7 hPa | 0 mm | - | 362 W/m² | - |
| 1777994003 | 23.33° C | 52% | 1008.7 hPa | 0 mm | - | 140 W/m² | - |
| 1777993700 | 22.78° C | 53% | 1008.7 hPa | 0 mm | - | 143 W/m² | - |
| 1777993397 | 22.22° C | 53% | 1009.3 hPa | 0 mm | - | 176 W/m² | - |
| 1777993091 | 21.67° C | 54% | 1009 hPa | 0 mm | - | 831 W/m² | - |
| 1777992790 | 22.22° C | 54% | 1009.2 hPa | 0 mm | - | 217 W/m² | - |
| 1777992487 | 22.22° C | 54% | 1009.1 hPa | 0 mm | - | 280 W/m² | - |
| 1777992186 | 21.67° C | 55% | 1009.1 hPa | 0 mm | - | 811 W/m² | - |
| 1777991882 | 21.11° C | 59% | 1009.1 hPa | 0 mm | - | 817 W/m² | - |
| 1777991580 | 21.11° C | 56% | 1009 hPa | 0 mm | - | 236 W/m² | - |
| 1777991276 | 20.56° C | 58% | 1008.9 hPa | 0 mm | - | 763 W/m² | - |
| 1777990973 | 20° C | 61% | 1009 hPa | 0 mm | - | 664 W/m² | - |
| 1777990671 | 19.44° C | 61% | 1009.1 hPa | 0 mm | - | 172 W/m² | - |
| 1777990368 | 19.44° C | 63% | 1009 hPa | 0 mm | - | 180 W/m² | - |
| 1777990064 | 19.44° C | 65% | 1009.1 hPa | 0 mm | - | 226 W/m² | - |
| 1777989761 | 18.33° C | 67% | 1009.2 hPa | 0 mm | - | 205 W/m² | - |
| 1777989458 | 17.78° C | 71% | 1009.2 hPa | 0 mm | - | 177 W/m² | - |
| 1777989154 | 17.78° C | 73% | 1009.1 hPa | 0 mm | - | 152 W/m² | - |
* Rain latest hour (hover to see other rain measurements)
** Current wind speed in m/s (hover to see current wind gust speed)